{"data":{"norad_id":66579,"epoch":"2026-09-20T11:52:32.702016Z","epoch_age_seconds":87102,"freshness":"FRESH","line1":"1 66579U 25268Y   26263.49482294  .00009335  00000+0  34822-3 0  9998","line2":"2 66579  42.9990 326.8200 0002221 236.8628 123.2010 15.27588999 47756","mean_motion":15.27588999,"eccentricity":0.0002221,"inclination_deg":42.999,"raan_deg":326.82,"arg_perigee_deg":236.8628,"mean_anomaly_deg":123.201,"bstar":0.00034822,"rev_number":4775,"period_min":94.266193389888,"perigee_km":481.49828648136,"apogee_km":484.54601337576,"semimajor_km":6861.1591499286,"source":"CELESTRAK","updated_at":"2026-09-21T09:00:35.974049Z"}}